Satellite-Ground Cal/Val Site Overpasses Predictions

Prediction of Satellite NPP Overpassing Cal/Val Site: Antarctic Dome C

Ground Cal/Val Site Location: Latitude: -75.10, Longitude: 123.35; Satellite-Ground Site NADIR distance within 100 km.

Table of predicted overpasses for the next 14.0 days since TLE Epoch: 1/1/2016
Interval Starting Time Ending Time Minimum Distance Time Minimum Distance (km)
1 01/02/2016 07:46:15 01/02/2016 07:46:35 01/02/2016 07:46:25 74.51
2 01/03/2016 07:27:21 01/03/2016 07:27:48 01/03/2016 07:27:34 33.46
3 01/05/2016 15:09:45 01/05/2016 15:09:54 01/05/2016 15:09:50 94.66
4 01/06/2016 14:50:45 01/06/2016 14:51:14 01/06/2016 14:50:59 16.73
5 01/08/2016 07:33:33 01/08/2016 07:34:02 01/08/2016 07:33:47 3.52
6 01/11/2016 14:56:57 01/11/2016 14:57:26 01/11/2016 14:57:12 19.69
7 01/12/2016 14:38:14 01/12/2016 14:38:28 01/12/2016 14:38:21 87.41
8 01/13/2016 07:39:46 01/13/2016 07:40:13 01/13/2016 07:40:00 39.18


NCC Satellite Cal/Val Overpasses Prediction Service
